Location: Casco Volunteer Fire Department
(44.5576°N, 87.6146°W)
Time: 03:59:21
(UTC+00:00)

Cosmos 1733 Rocket - Pass Details

Date: 22 January 2026
Orbit: 596 x 621 km, 82.5° (Epoch: 10 February)

Event Time Altitude Azimuth Distance (km) Brightness Sun altitude
Rises 23:24:07 0° 0° (N) 2,886 6.3 -7.1°
Reaches altitude 10° 23:26:35 10° 12° (NNE) 1,972 5.3 -7.5°
Maximum altitude 23:30:26 30° 74° (ENE) 1,094 3.8 -8.1°
Drops below altitude 10° 23:34:15 10° 136° (SE) 1,944 5.4 -8.8°
Sets 23:36:39 0° 147° (SSE) 2,838 6.3 -9.2°
